Weather Roundup
Issued by NWS Springfield, MO

Home | Current Version | Previous Version | Text Only | Print | Product List | Glossary On
Versions: 1 2 3 4 5 6 7 8 9 10 11 12 13 14 15 16 17 18 19 20 21 22 23 24 25 26 27 28 29 30 31 32 33 34 35 36 37 38 39 40 41 42 43 44 45 46 47 48 49 50
000
NZUS99 KSGF 301057
HRRSGF

HOURLY WEATHER
NATIONAL WEATHER SERVICE SPRINGFIELD MO
600 AM CDT SUN AUG 30 2015

......SGF CWA......

CITY           SKY/WX    TMP DP  RH WIND       PRES   REMARKS
SPRINGFIELD    PTCLDY    68  65  90 SE8       29.99S
JOPLIN         FOG       67  67 100 VRB3      29.98F VSB 1/2
WEST PLAINS    MOCLDY    69  65  86 CALM      30.04R
ROLLA          PTCLDY    66  64  93 S7        30.01R

......SURROUNDING SGF CWA......

CITY           SKY/WX    TMP DP  RH WIND       PRES   REMARKS
CHANUTE        FOG       67  66  97 N5        29.99F VSB 3/4
PARSONS        FOG       63  63 100 CALM      29.99S VSB 1/2
COFFEYVILLE    CLEAR     64  64 100 NW3       29.98R
EMPORIA        FOG       62  62 100 CALM      30.02R VSB 1/4

......KANSAS AND MISSOURI......

CITY           SKY/WX    TMP DP  RH WIND       PRES   REMARKS
KANSAS CTY INT PTCLDY    66  60  81 E8        30.02S
SEDALIA        CLOUDY    70  68  93 E3        30.01S FOG
ST JOSEPH      CLOUDY    60  60 100 CALM      30.03R FOG
ST LOUIS       MOCLDY    73  65  75 CALM      30.02R
WICHITA        PTCLDY    61  58  90 N5        30.02R
TOPEKA         CLOUDY    62  61  96 CALM      30.02R
OLATHE         CLOUDY    67  67 100 E6        30.00F FOG

......TENNESSEE......

CITY           SKY/WX    TMP DP  RH WIND       PRES   REMARKS
MEMPHIS        NOT AVBL
NASHVILLE      CLOUDY    70  66  87 CALM      30.11R

......ARKANSAS.......

CITY           SKY/WX    TMP DP  RH WIND       PRES   REMARKS
FAYETTEVILLE   MOCLDY    70  70 100 E5        30.00R
FT SMITH       CLEAR     72  67  84 NE8       29.96S
LITTLE ROCK    PTCLDY    70  66  87 CALM      29.99R

......OKLAHOMA.......

CITY           SKY/WX    TMP DP  RH WIND       PRES   REMARKS
TULSA          CLEAR     68  67  96 NW3       29.95R
PONCA CITY     CLEAR     62  60  93 N3        29.98F FOG
MCALESTER      PTCLDY    73  70  90 MISG      29.95S FOG
OKLAHOMA CITY  PTCLDY    66  64  93 NW8       29.98R

......IOWA............

CITY           SKY/WX    TMP DP  RH WIND       PRES   REMARKS
DES MOINES     NOT AVBL
QUAD CITIES    FOG       62  60  93 CALM      30.05R VSB 1/4

......ILLINOIS........

CITY           SKY/WX    TMP DP  RH WIND       PRES   REMARKS
QUINCY         NOT AVBL
CHICAGO        CLOUDY    64  63  96 N5        30.04R FOG




USA.gov is the U.S. government's official web portal to all federal, state and local government web resources and services.